RH
8 11 18 28 47 24 24 23 16 12 9 11 27 44 32 37 31 31 36 55 94 100 100 100 91 100 100 100 100 100 100 100 100 86 77 90 97 90 62 40 39 92 97 100 78 82 70 48 35
17 26 32 43 28 16 12 12 16 17 15 11 8 9 13 20 20 20 20 19 15 20 22 24 55 89 100 90 87 92 92 75 60 61 72 91 86 100 88 53 59 100 92 100 79 85 48 36 35
28 29 42 28 19 29 35 41 34 25 15 11 12 12 12 12 10 8 7 8 7 8 8 7 8 8 18 28 27 32 35 56 48 59 89 100 95 98 100 55 60 100 92 94 90 50 40 27 56
43 36 30 33 48 50 57 58 36 25 12 8 9 11 11 11 11 11 13 12 12 12 12 11 11 12 13 14 16 26 26 52 90 100 95 100 100 100 100 41 82 98 100 96 94 34 28 39 62
46 40 30 29 38 46 52 35 14 13 17 20 12 18 24 23 22 25 28 30 30 23 19 17 18 23 23 29 24 40 43 44 68 77 100 100 100 100 92 60 84 90 100 100 88 33 28 36 43
48 51 44 36 33 35 36 17 13 16 17 30 32 42 34 39 49 46 46 32 22 27 24 20 19 25 26 33 31 29 40 45 63 76 100 98 95 100 44 58 100 100 100 100 66 30 26 27 41
38 61 51 50 45 21 32 16 10 10 12 18 28 35 39 58 67 54 28 37 29 23 19 22 32 31 32 29 36 47 39 40 92 97 100 100 100 96 72 56 92 87 87 75 80 23 22 27 46
44 98 56 42 40 37 33 19 10 11 10 12 21 34 50 69 35 35 43 39 28 23 24 34 31 36 42 32 27 44 65 61 61 100 100 98 100 99 90 69 82 75 100 91 45 27 39 47 50
98 61 61 40 32 50 39 28 12 15 20 14 30 50 58 29 31 48 54 36 32 24 25 35 40 53 47 39 44 41 58 63 56 93 100 100 100 100 82 57 55 73 55 48 29 29 30 50 63
95 76 64 44 37 25 39 38 12 16 34 42 42 44 32 24 40 53 72 42 34 26 35 45 88 61 76 90 100 100 69 69 85 77 100 100 100 89 66 45 38 100 27 83 57 42 34 51 51
70 89 63 52 46 14 29 42 16 16 16 22 23 20 19 23 41 60 82 54 33 38 45 50 72 100 82 99 89 98 100 67 82 80 100 100 100 83 47 66 100 62 21 32 32 49 46 66 57
82 57 61 51 55 24 18 37 45 14 16 16 15 17 21 25 41 56 80 61 41 52 56 57 64 89 97 100 100 100 87 68 87 99 96 100 100 65 46 69 93 30 26 86 56 45 100 100 46
88 60 58 50 52 60 29 19 35 39 14 15 19 19 20 34 36 49 69 78 58 68 60 62 60 87 100 100 100 100 83 59 49 87 98 100 95 81 100 58 33 26 67 99 74 99 87 72 74
100 73 61 59 50 58 69 74 37 34 37 15 16 22 22 30 35 46 64 83 68 74 64 67 70 69 93 100 77 100 69 73 100 100 85 87 100 70 99 34 41 100 100 100 100 84 62 56 69
89 78 57 71 71 62 65 70 62 33 52 40 17 20 22 23 34 41 63 76 73 70 75 70 78 65 73 100 98 88 88 90 100 94 96 100 68 89 71 99 100 99 100 91 89 48 44 49 73
65 88 64 79 72 76 100 66 67 57 32 54 55 33 18 20 20 33 44 66 80 70 74 78 80 78 74 99 100 100 100 100 100 100 100 100 51 55 96 100 89 80 65 29 26 42 27 37 56
36 75 66 64 65 78 71 55 82 80 67 60 57 45 54 36 19 21 34 46 74 96 100 67 72 79 62 82 91 100 100 100 100 98 98 72 51 43 38 87 91 58 47 38 25 44 45 49 56
14 51 49 66 87 71 47 74 85 76 96 91 80 70 54 43 50 17 20 34 56 63 58 81 50 69 78 54 68 86 85 100 100 100 100 76 38 33 31 40 91 70 71 99 88 59 43 36 58
15 22 27 38 38 40 100 100 88 74 76 79 79 82 87 69 51 45 18 21 26 37 37 35 75 61 70 70 46 57 64 98 100 100 100 59 47 36 51 78 87 61 74 64 47 70 97 99 100
12 19 12 12 12 16 80 76 100 100 100 97 100 100 94 78 70 67 54 21 18 21 26 32 42 70 61 73 66 44 52 60 85 94 100 88 44 35 33 45 54 49 33 56 46 74 100 100 100
14 13 12 10 12 13 53 72 70 100 69 68 84 98 100 100 95 82 69 61 48 26 16 20 27 48 77 54 68 59 54 44 54 67 70 91 46 61 40 38 58 53 44 42 79 98 100 100 100
12 12 12 11 10 27 76 67 100 100 100 100 75 56 64 84 84 76 85 80 89 69 54 23 17 23 35 50 50 60 57 51 48 46 46 48 51 49 43 36 42 36 74 95 100 100 78 88 100
10 11 11 12 16 32 53 78 85 90 51 24 24 29 29 36 44 51 48 45 71 77 68 65 54 21 17 22 35 53 44 53 48 42 46 45 48 65 61 53 53 97 100 97 56 82 100 95 81
11 19 13 13 92 18 18 23 19 16 17 22 25 32 33 44 53 55 53 41 41 46 48 39 53 55 41 37 20 28 39 40 45 52 57 64 64 64 56 56 100 100 100 75 75 76 92 100 100
11 87 44 62 14 14 15 25 17 20 20 20 18 17 19 31 54 52 52 54 57 61 57 21 29 44 50 51 68 52 21 27 40 42 51 59 80 56 62 58 97 96 94 95 100 100 100 99 96
14 100 84 27 16 13 15 22 20 22 21 20 19 16 15 16 28 31 19 23 35 53 56 50 32 24 41 48 52 48 19 15 24 50 48 54 61 60 42 44 48 50 46 46 43 44 57 64 59
11 13 12 42 11 15 18 19 20 20 19 19 19 17 15 13 12 11 10 13 22 21 22 18 35 43 40 51 47 51 49 40 21 49 45 46 80 93 74 61 53 62 59 48 38 26 28 38 45
97 39 47 99 13 15 17 19 22 20 20 23 23 22 18 16 16 16 17 15 14 13 15 50 42 16 12 23 24 27 45 46 62 48 55 64 74 74 74 80 81 75 76 68 52 30 26 30 26
15 13 100 31 13 14 15 20 23 21 21 23 22 22 19 19 19 18 17 16 14 13 13 19 53 35 14 9 14 20 19 37 35 39 42 43 51 64 56 50 56 47 41 32 26 30 40 66 60
16 13 11 86 100 20 18 22 27 28 24 24 24 19 19 20 20 18 16 15 15 13 15 16 33 51 18 11 10 9 13 13 20 21 32 31 31 54 94 100 64 37 31 34 38 34 40 48 53
Wind_Speed
24 21 17 11 13 13 16 19 22 23 25 29 34 36 34 35 35 37 39 40 39 34 32 37 45 45 36 24 38 38 35 29 16 13 15 14 13 13 13 12 23 29 24 19 21 17 13 9 3
23 18 13 13 16 15 16 12 12 13 15 18 22 25 29 31 34 37 37 36 35 32 32 33 36 30 30 29 17 18 17 13 12 14 17 16 12 14 18 14 26 28 28 20 21 15 9 4 2
24 24 19 16 14 11 11 12 11 8 6 7 10 17 21 22 23 24 26 27 29 31 31 33 27 24 25 21 20 17 16 16 16 19 20 18 15 15 20 16 29 27 26 23 21 12 7 7 12
20 23 19 14 12 14 16 16 12 7 3 4 5 9 10 9 9 12 15 15 15 15 16 18 20 20 21 23 21 19 20 23 23 17 22 26 21 22 24 19 31 30 18 26 19 16 12 12 11
18 19 19 14 11 15 17 19 11 4 3 5 8 9 8 7 7 8 9 8 7 7 8 9 10 13 16 18 20 18 21 27 31 28 23 26 18 28 21 27 31 21 19 25 19 17 12 9 13
16 19 20 14 12 14 17 17 11 8 2 7 7 9 7 10 12 11 9 7 7 4 1 6 11 15 19 22 23 24 26 30 31 27 28 34 25 30 21 34 24 28 22 23 16 14 10 6 10
13 26 20 19 13 13 17 18 13 10 2 7 11 10 12 16 15 10 10 10 8 3 2 3 6 11 14 16 19 21 26 38 41 31 36 38 27 28 25 35 30 22 25 19 15 11 6 9 8
10 12 18 21 18 13 18 19 16 12 3 8 16 15 21 19 16 14 13 11 9 10 9 5 4 4 4 6 14 19 27 40 47 39 39 37 31 28 30 33 33 24 25 20 13 13 10 12 8
15 13 17 15 18 12 14 19 19 14 11 15 21 25 20 18 20 17 14 12 13 14 10 12 14 15 14 10 11 14 24 42 52 46 41 36 38 36 34 32 29 20 21 14 17 9 4 3 5
20 10 10 15 20 15 11 17 18 15 14 17 20 22 18 19 20 20 14 13 14 14 12 17 19 19 18 20 25 18 11 38 51 52 43 38 37 37 31 32 29 25 16 18 11 9 5 6 6
6 4 9 14 19 16 11 14 17 14 10 12 14 13 14 18 19 19 12 12 14 17 15 17 17 17 21 19 16 18 13 27 52 50 47 38 34 34 31 32 25 30 16 17 11 12 9 7 5
7 7 10 14 16 15 13 12 14 14 10 8 10 13 13 14 17 15 11 11 15 18 18 16 17 19 24 21 14 14 11 21 49 47 49 39 33 33 32 29 23 21 19 15 12 14 9 3 3
5 5 6 13 19 15 16 12 9 13 11 8 9 11 15 15 14 14 12 11 12 15 18 16 16 14 9 13 13 15 17 26 41 38 41 39 40 28 22 28 23 22 21 20 14 14 11 6 9
4 1 5 6 11 21 17 16 11 10 13 8 6 8 10 14 15 15 14 13 11 13 16 17 15 15 13 15 13 18 21 32 35 38 41 40 36 28 33 28 29 24 18 29 16 9 16 12 11
5 3 2 6 9 10 18 16 16 9 10 13 10 6 10 10 11 15 13 12 11 12 13 16 17 15 16 14 15 16 18 23 23 44 35 25 30 31 35 20 24 19 17 16 13 12 14 14 14
3 9 5 2 3 7 22 10 14 15 6 7 10 9 6 9 11 13 14 12 10 10 9 11 15 17 15 10 18 17 20 28 35 24 28 29 33 37 31 24 30 14 17 19 16 14 16 20 22
8 11 10 7 2 4 6 5 7 9 9 11 10 5 5 5 8 11 13 15 13 10 7 7 9 14 15 16 16 19 16 30 32 25 23 20 33 36 34 24 31 20 19 17 21 21 21 21 20
11 12 9 7 4 8 9 4 3 4 7 5 6 6 5 2 2 11 14 14 16 13 9 5 8 11 14 17 17 15 20 25 27 25 28 25 31 35 36 30 22 23 20 18 16 17 21 24 23
3 4 7 9 6 10 2 5 3 2 1 1 2 3 1 4 4 4 11 16 16 15 12 11 10 10 11 13 16 14 16 23 26 15 28 24 29 33 32 29 23 19 20 18 16 19 21 17 10
2 5 5 5 4 7 9 7 6 4 0 2 5 4 4 2 2 2 1 8 13 18 16 14 15 15 13 12 14 16 18 25 25 23 25 26 25 33 33 36 32 30 23 23 25 27 23 18 22
1 3 5 6 5 8 8 12 12 2 3 3 3 5 6 5 4 5 4 5 7 10 14 19 18 19 17 16 15 17 20 26 29 30 28 27 26 30 28 30 34 33 32 32 28 25 22 15 20
3 6 4 4 4 5 14 13 4 9 13 9 10 12 13 13 11 8 9 8 8 12 14 15 20 22 23 22 21 21 21 24 27 28 31 32 33 32 35 34 32 30 36 33 23 19 20 21 16
7 10 7 5 4 4 12 11 10 9 7 4 2 7 10 10 12 14 12 14 14 13 13 16 18 20 25 27 28 28 27 27 29 31 33 34 34 33 34 38 41 36 32 32 27 22 26 26 25
7 13 9 5 9 4 6 3 4 6 8 8 8 7 4 3 2 6 9 10 12 17 13 17 21 23 22 27 30 32 33 33 33 32 30 31 30 30 30 31 30 32 31 31 27 28 30 33 31
12 21 9 1 5 6 9 11 15 16 15 16 13 11 8 3 1 3 4 8 14 17 23 14 21 23 26 27 31 33 35 36 38 37 35 35 34 32 31 30 29 32 34 35 35 35 37 34 33
14 19 14 8 5 11 16 12 14 14 15 15 16 17 15 11 6 6 7 6 5 7 9 9 12 22 25 29 32 31 34 40 39 39 38 38 37 38 37 36 37 37 38 40 40 39 41 43 42
9 11 11 2 7 12 13 12 14 13 13 15 15 16 17 19 17 14 14 14 15 13 9 11 12 16 23 30 32 35 37 36 38 40 41 41 37 38 40 40 42 42 42 43 43 43 43 45 46
15 3 5 10 7 10 12 12 11 10 11 12 13 14 15 17 19 22 22 20 19 17 17 13 8 19 22 27 32 36 39 40 41 41 41 38 39 40 40 41 42 43 44 45 47 45 42 41 41
4 9 15 9 6 7 13 11 9 7 8 9 11 11 12 15 20 21 21 21 22 21 22 20 12 10 15 21 25 28 35 41 40 41 44 41 37 34 36 41 41 42 45 44 44 43 41 37 37
2 5 8 13 27 6 5 10 9 5 5 7 8 8 11 15 17 21 23 25 26 28 26 26 17 16 6 11 20 24 29 33 38 38 40 42 40 36 34 39 39 40 42 43 43 44 42 42 42
Wind_Direction
349 352 350 342 321 299 283 277 265 260 250 243 238 242 244 249 253 255 256 259 251 240 232 230 232 236 245 244 239 246 251 254 217 180 202 211 208 200 191 171 167 165 165 190 174 164 171 175 231
3 2 359 342 332 320 303 288 278 266 257 243 234 233 236 240 248 250 253 259 265 269 268 265 255 254 243 257 251 234 234 229 222 188 200 204 206 197 198 174 167 171 171 167 168 159 125 155 50
1 7 2 351 341 358 9 12 356 320 264 245 228 228 234 236 240 245 250 252 254 256 257 260 262 257 257 248 247 235 210 182 179 186 190 167 212 199 202 175 170 171 164 186 172 146 133 122 102
1 359 2 357 28 31 24 10 355 327 252 217 197 196 198 204 219 230 236 243 248 248 246 246 246 246 245 244 235 217 193 182 170 168 185 177 187 198 199 175 167 173 159 171 177 145 148 86 86
19 7 8 9 16 21 19 7 355 309 217 183 154 147 165 182 198 201 195 183 190 209 224 236 245 248 245 243 235 212 186 178 180 176 175 176 172 177 181 161 157 165 161 169 166 157 143 85 76
27 16 6 3 357 3 16 13 29 19 185 192 169 157 149 154 153 158 153 149 137 104 290 268 257 252 250 246 241 226 202 181 176 180 173 172 172 178 164 156 162 181 186 173 167 182 175 112 91
2 358 351 351 353 10 20 15 20 22 352 187 178 166 144 147 141 136 127 109 84 70 359 305 291 271 264 252 235 223 199 185 169 172 165 159 164 169 169 167 171 184 188 173 186 183 131 124 100
4 227 339 341 356 18 26 17 27 29 65 150 147 143 144 142 130 130 117 97 81 56 36 26 10 5 348 264 229 206 193 181 180 178 174 165 176 174 172 170 172 182 183 164 160 136 102 122 87
75 317 340 354 19 23 23 24 40 44 82 133 135 138 142 141 129 125 109 98 65 44 47 69 55 59 55 88 109 149 176 180 179 178 169 167 171 172 168 163 165 172 187 173 177 155 160 146 134
12 336 3 6 22 29 37 37 51 53 88 119 133 138 141 138 132 122 100 82 59 45 61 68 65 59 66 93 101 86 139 176 178 177 165 165 168 167 162 168 170 193 191 176 170 197 203 186 141
120 335 29 26 27 41 54 51 56 68 83 111 124 127 136 139 131 129 107 84 61 57 65 76 77 74 77 80 108 118 120 172 178 180 173 175 172 158 158 170 168 182 193 203 199 193 216 251 147
74 66 65 42 43 51 61 57 52 72 82 105 124 136 137 142 136 137 122 92 77 61 68 74 77 92 86 58 61 118 131 163 175 174 180 175 174 165 167 180 171 178 193 177 194 220 239 10 257
127 57 74 57 51 55 67 54 55 62 70 110 123 141 145 146 147 146 144 112 85 64 64 71 86 102 112 77 72 109 119 151 163 167 174 182 166 178 196 173 172 168 196 185 224 232 245 255 310
138 17 142 63 56 51 51 50 51 74 75 73 110 149 157 161 158 157 158 130 103 81 69 69 83 108 107 87 84 105 134 153 154 153 154 162 181 179 177 175 191 200 215 209 211 206 237 273 304
190 238 62 79 42 31 42 44 52 53 87 92 102 152 173 166 171 172 163 149 134 98 80 72 78 111 135 100 101 112 130 159 153 153 162 169 185 180 181 195 191 207 205 217 230 258 268 273 300
303 248 265 210 3 19 68 360 53 49 107 86 91 106 156 196 188 183 179 167 171 129 104 88 76 103 143 120 126 119 141 137 148 165 179 179 175 185 186 193 196 192 191 221 243 259 266 263 281
282 255 250 253 295 321 330 28 59 56 59 64 78 107 105 125 211 207 193 192 187 169 159 122 99 96 129 138 141 145 145 143 155 170 171 165 178 192 204 218 195 225 223 237 245 255 258 269 285
275 260 252 239 270 301 307 334 345 153 130 88 45 53 73 167 41 215 208 200 199 192 187 174 135 114 116 147 158 159 158 171 161 176 186 189 184 198 207 220 221 227 240 242 244 255 267 270 275
294 286 265 265 262 284 181 241 356 142 77 57 354 314 16 65 64 102 207 214 210 217 219 209 174 152 129 140 165 179 182 183 190 170 185 195 198 203 206 218 223 236 234 236 246 278 278 270 238
344 337 334 301 277 228 208 214 160 80 24 52 358 335 333 314 50 52 225 204 214 220 219 212 202 180 170 155 163 184 197 198 202 203 192 198 214 214 222 225 230 235 233 251 264 276 264 258 238
59 339 313 268 253 213 203 157 156 97 270 238 314 265 237 222 285 286 275 282 258 236 227 221 214 205 193 186 179 183 197 207 212 214 216 212 215 217 224 228 227 233 243 256 270 258 258 254 246
341 25 335 292 272 168 149 152 148 230 245 257 263 233 240 235 225 223 248 264 267 262 253 237 225 223 213 203 198 196 197 208 214 222 224 225 227 232 236 239 237 240 245 260 249 244 251 255 253
26 31 15 12 321 219 168 176 197 227 246 250 284 241 223 217 219 230 254 246 246 239 243 252 242 231 231 219 209 207 205 207 213 221 226 228 232 236 235 238 240 245 235 240 243 243 260 264 260
52 44 33 53 198 163 130 146 96 72 58 56 58 59 106 181 181 221 234 247 251 253 265 252 240 239 232 233 230 221 220 219 216 221 221 223 228 232 237 234 234 225 237 245 253 251 256 260 261
85 85 322 280 163 147 116 91 83 78 78 68 60 57 53 34 321 338 314 287 273 263 275 271 230 232 237 235 234 234 230 223 223 222 225 228 231 234 237 235 240 237 247 253 257 258 258 260 263
113 111 243 204 156 113 98 97 92 88 72 69 66 64 66 68 68 59 43 13 341 285 271 282 263 237 235 234 237 242 235 232 229 230 228 229 232 236 238 239 243 246 250 254 259 261 259 260 263
128 156 201 38 118 112 106 97 83 73 63 57 51 48 56 61 66 61 52 44 41 37 341 278 251 245 244 243 241 238 239 242 237 235 235 234 235 240 240 242 245 250 256 259 262 265 264 266 267
100 199 98 189 133 125 111 95 80 65 57 53 42 36 35 40 42 41 34 27 24 20 27 28 298 263 251 242 240 242 241 240 240 241 237 237 241 241 242 244 247 248 254 257 260 262 265 267 267
110 148 165 207 129 126 111 95 79 55 46 48 39 38 35 32 31 28 29 27 21 15 20 27 26 331 283 262 245 239 240 242 245 243 243 244 244 250 255 252 253 256 257 260 263 261 260 262 269
175 147 189 58 333 258 124 102 89 61 27 34 21 28 29 28 25 16 13 16 16 15 19 25 29 30 348 284 259 255 246 241 245 247 247 249 251 249 256 262 261 262 262 259 259 262 261 262 266